Location: Ku?niki
(51.4449°N, 17.8974°E)
Time: 09:28:38
(UTC+00:00)

Cosmos 1733 - Pass Details

Date: 18 September 2020
Orbit: 504 x 523 km, 82.5° (Epoch: 25 October)

Event Time Altitude Azimuth Distance (km) Brightness Sun altitude
Exits shadow 19:16:42 39° 39° (NE) 800 4.0 -21.6°
Drops below altitude 10° 19:19:20 10° 18° (NNE) 1,761 6.1 -22.0°
Sets 19:21:30 0° 14° (NNE) 2,650 7.1 -22.3°
